Tracking 28790 objects as of 18-Apr-2024
HD Live streaming from Space Station
objects crossing your sky now

STARLINK-1398

Track STARLINK-1398 now!
10-day predictions
STARLINK-1398 is classified as:


NORAD ID: 45699
Int'l Code: 2020-035AU
Perigee: 553.4 km
Apogee: 555.4 km
Inclination: 53.1 °
Period: 95.6 minutes
Semi major axis: 6925 km
RCS: Unknown
Launch date: June 4, 2020
Source: United States (US)
Launch site: AIR FORCE EASTERN TEST RANGE (AFETR)
Your satellite tracking list
Your tracking list is empty




NASA's NSSDC Master Catalog

Two Line Element Set (TLE):
1 45699U 20035AU  24108.64570080 -.00003914  00000-0 -24415-3 0  9996
2 45699  53.0535 258.8289 0001421  83.6960 276.4191 15.06382624214990
Source of the keplerian elements: AFSPC